Weather History for KBID - March, 2013

Change the Weather History Date:

Tuesday, March 19, 2013

  Actual Average Record
Temperature  
Mean Temperature 36 °F -  
Max Temperature 39 °F 43 °F 60 °F (2012)
Min Temperature 33 °F 31 °F 8 °F (1967)
Degree Days  
Heating Degree Days 29    
Moisture  
Dew Point 33 °F    
Average Humidity 86    
Maximum Humidity 93    
Minimum Humidity 75    
Precipitation  
Precipitation 0.49 in - - ()
Sea Level Pressure  
Sea Level Pressure 29.76 in    
Wind  
Wind Speed 18 mph (NE)    
Max Wind Speed 26 mph    
Max Gust Speed 36 mph    
Visibility 6 miles    
Events      
Averages and records for this station are not official NWS values.
T = Trace of Precipitation, MM = Missing Value Source: NWS Daily Summary

Daily Weather History Graph

Daily Weather History Graph

Search for Another Location

Airport or City:

Trip Planner

Search our weather history database for the weather conditions in past years. The results will help you decide how hot, cold, wet, or windy it might be!

Date:

Astronomy

Mar. 19, 2013 Rise Set
Actual Time 6:50 AM EDT 6:57 PM EDT
Civil Twilight 6:23 AM EDT 7:25 PM EDT
Nautical Twilight 5:51 AM EDT 7:57 PM EDT
Astronomical Twilight 5:18 AM EDT 8:30 PM EDT
Moon 11:35 AM EDT (3/19) 1:45 AM EDT (3/19)
Length of Visible Light 13h 01m
Length of Day
12h 06m
Waxing Crescent, 49% of the Moon is Illuminated
Mar 19
Waxing Crescent
Mar 19
First Quarter
Mar 27
Full
Apr 3
Last Quarter
Apr 10
New

Hourly Weather History & Observations

Time (EDT) Temp. Windchill Dew Point Humidity Pressure Visibility Wind Dir Wind Speed Gust Speed Precip Events Conditions
12:15 AM 33.8 °F 23.2 °F 26.6 °F 75% 30.13 in 3.0 mi East 17.3 mph 29.9 mph N/A   Overcast
12:35 AM 33.8 °F 22.5 °F 28.4 °F 81% 30.11 in 3.0 mi East 19.6 mph 27.6 mph N/A   Overcast
1:15 AM 33.8 °F 22.2 °F 28.4 °F 81% 30.07 in 6.0 mi East 20.7 mph 28.8 mph N/A   Overcast
1:35 AM 35.6 °F 24.0 °F 30.2 °F 81% 30.05 in 8.0 mi East 23.0 mph 31.1 mph N/A   Overcast
1:55 AM 35.6 °F 23.7 °F 28.4 °F 75% 30.03 in 5.0 mi East 24.2 mph 33.4 mph N/A   Overcast
2:15 AM 35.6 °F 25.2 °F 30.2 °F 81% 30.02 in 4.0 mi East 18.4 mph 29.9 mph N/A   Overcast
2:35 AM 35.6 °F 23.2 °F 30.2 °F 81% 29.99 in 5.0 mi East 26.5 mph 35.7 mph N/A   Overcast
2:55 AM 35.6 °F 23.7 °F 30.2 °F 81% 29.99 in 5.0 mi East 24.2 mph 31.1 mph 0.06 in   Overcast
3:15 AM 35.6 °F 24.0 °F 30.2 °F 81% 29.97 in 6.0 mi East 23.0 mph 32.2 mph 0.01 in   Overcast
3:55 AM 35.6 °F 24.5 °F 30.2 °F 81% 29.94 in 5.0 mi East 20.7 mph 32.2 mph 0.05 in   Overcast
4:15 AM 35.6 °F 23.7 °F 32.0 °F 87% 29.93 in 5.0 mi East 24.2 mph 33.4 mph 0.02 in   Overcast
4:35 AM 35.6 °F 23.7 °F 32.0 °F 87% 29.93 in 5.0 mi East 24.2 mph 33.4 mph 0.04 in   Overcast
4:55 AM 35.6 °F 24.2 °F 32.0 °F 87% 29.92 in 4.0 mi East 21.9 mph 29.9 mph 0.08 in   Overcast
5:15 AM 35.6 °F 24.8 °F 33.8 °F 93% 29.91 in 4.0 mi East 19.6 mph 28.8 mph 0.02 in   Overcast
5:35 AM 35.6 °F 24.8 °F 33.8 °F 93% 29.91 in 3.0 mi ENE 19.6 mph 26.5 mph 0.05 in   Overcast
6:15 AM 37.4 °F 27.2 °F 33.8 °F 87% 29.89 in 4.0 mi ENE 19.6 mph 28.8 mph N/A   Overcast
6:35 AM 37.4 °F 26.9 °F 33.8 °F 87% 29.88 in 5.0 mi ENE 20.7 mph 27.6 mph N/A   Overcast
6:55 AM 37.4 °F 27.2 °F 33.8 °F 87% 29.86 in 5.0 mi ENE 19.6 mph 27.6 mph N/A   Overcast
7:15 AM 37.4 °F 27.2 °F 33.8 °F 87% 29.85 in 4.0 mi East 19.6 mph 29.9 mph N/A   Overcast
7:35 AM 37.4 °F 26.6 °F 33.8 °F 87% 29.84 in 3.0 mi ENE 21.9 mph 31.1 mph N/A   Overcast
7:55 AM 37.4 °F 27.5 °F 33.8 °F 87% 29.83 in 4.0 mi ENE 18.4 mph 29.9 mph 0.06 in   Overcast
8:15 AM 37.4 °F 27.2 °F 33.8 °F 87% 29.81 in 5.0 mi ENE 19.6 mph 28.8 mph 0.01 in   Overcast
8:35 AM 37.4 °F 28.2 °F 33.8 °F 87% 29.80 in 3.0 mi ENE 16.1 mph 28.8 mph 0.02 in   Overcast
8:55 AM 37.4 °F 27.8 °F 33.8 °F 87% 29.79 in 3.0 mi ENE 17.3 mph 26.5 mph 0.06 in   Overcast
9:15 AM 37.4 °F 27.2 °F 35.6 °F 93% 29.78 in 3.0 mi ENE 19.6 mph 28.8 mph 0.02 in   Overcast
9:35 AM 37.4 °F 28.5 °F 35.6 °F 93% 29.77 in 2.5 mi ENE 15.0 mph 28.8 mph 0.07 in   Overcast
9:55 AM 37.4 °F 27.8 °F 35.6 °F 93% 29.75 in 3.0 mi ENE 17.3 mph 27.6 mph 0.10 in   Overcast
10:35 AM 39.2 °F 30.2 °F 35.6 °F 87% 29.72 in 4.0 mi ENE 17.3 mph 27.6 mph 0.01 in   Overcast
10:55 AM 39.2 °F 30.5 °F 35.6 °F 87% 29.71 in 5.0 mi ENE 16.1 mph 25.3 mph 0.01 in   Overcast
11:15 AM 39.2 °F 30.8 °F 35.6 °F 87% 29.70 in 4.0 mi ENE 15.0 mph 24.2 mph N/A   Overcast
11:35 AM 39.2 °F 30.5 °F 35.6 °F 87% 29.68 in 5.0 mi ENE 16.1 mph 24.2 mph N/A   Overcast
11:55 AM 39.2 °F 30.8 °F 37.4 °F 93% 29.67 in 3.0 mi ENE 15.0 mph 21.9 mph N/A   Overcast
12:15 PM 39.2 °F 31.2 °F 37.4 °F 93% 29.66 in 1.8 mi NE 13.8 mph 19.6 mph N/A   Overcast
12:35 PM 39.2 °F 32.0 °F 37.4 °F 93% 29.64 in 1.5 mi NE 11.5 mph 23.0 mph N/A   Overcast
1:15 PM 39.2 °F 31.6 °F 37.4 °F 93% 29.61 in 1.2 mi NE 12.7 mph 20.7 mph N/A   Overcast
1:35 PM 39.2 °F 32.0 °F 37.4 °F 93% 29.60 in 1.0 mi NE 11.5 mph 19.6 mph N/A   Overcast
1:55 PM 39.2 °F 32.5 °F 37.4 °F 93% 29.59 in 0.5 mi NE 10.4 mph 16.1 mph N/A   Overcast
2:15 PM 39.2 °F 35.0 °F 37.4 °F 93% 29.59 in 0.8 mi NNE 5.8 mph - N/A   Overcast
2:35 PM 39.2 °F 32.5 °F 37.4 °F 93% 29.59 in 1.0 mi NNW 10.4 mph 19.6 mph N/A   Overcast
2:55 PM 39.2 °F 31.2 °F 37.4 °F 93% 29.58 in 1.5 mi NNW 13.8 mph 20.7 mph 0.02 in   Overcast
3:15 PM 39.2 °F 31.2 °F 37.4 °F 93% 29.56 in 2.0 mi North 13.8 mph 23.0 mph N/A   Overcast
3:55 PM 39.2 °F 32.5 °F 35.6 °F 87% 29.56 in 10.0 mi North 10.4 mph 23.0 mph N/A   Overcast
4:15 PM 39.2 °F 31.6 °F 35.6 °F 87% 29.55 in 10.0 mi North 12.7 mph 19.6 mph N/A   Overcast
4:35 PM 39.2 °F 31.6 °F 37.4 °F 93% 29.55 in 10.0 mi North 12.7 mph 18.4 mph N/A   Overcast
4:55 PM 39.2 °F 33.0 °F 35.6 °F 87% 29.57 in 10.0 mi North 9.2 mph 17.3 mph N/A   Overcast
5:15 PM 39.2 °F 32.5 °F 35.6 °F 87% 29.57 in 10.0 mi NNW 10.4 mph 17.3 mph N/A   Overcast
5:35 PM 39.2 °F 32.5 °F 35.6 °F 87% 29.60 in 10.0 mi NW 10.4 mph - N/A   Overcast
5:55 PM 39.2 °F 33.6 °F 35.6 °F 87% 29.60 in 10.0 mi NW 8.1 mph 17.3 mph N/A   Overcast
6:35 PM 39.2 °F 31.6 °F 35.6 °F 87% 29.63 in 10.0 mi WNW 12.7 mph 18.4 mph N/A   Overcast
6:55 PM 39.2 °F 30.5 °F 33.8 °F 81% 29.63 in 8.0 mi WNW 16.1 mph 19.6 mph N/A   Overcast
7:15 PM 39.2 °F 32.0 °F 33.8 °F 81% 29.64 in 10.0 mi NW 11.5 mph 16.1 mph N/A   Overcast
7:35 PM 37.4 °F 29.8 °F 33.8 °F 87% 29.64 in 10.0 mi WNW 11.5 mph 17.3 mph N/A   Overcast
8:15 PM 37.4 °F 30.8 °F 32.0 °F 81% 29.68 in 10.0 mi WNW 9.2 mph 18.4 mph N/A   Overcast
8:55 PM 37.4 °F 28.5 °F 32.0 °F 81% 29.67 in 10.0 mi WNW 15.0 mph 21.9 mph N/A   Mostly Cloudy
9:15 PM 37.4 °F 28.9 °F 32.0 °F 81% 29.67 in 10.0 mi NW 13.8 mph 24.2 mph N/A   Mostly Cloudy
9:35 PM 35.6 °F 27.5 °F 30.2 °F 81% 29.67 in 10.0 mi NW 11.5 mph 21.9 mph N/A   Mostly Cloudy
9:55 PM 35.6 °F 27.5 °F 30.2 °F 81% 29.68 in 10.0 mi WNW 11.5 mph 17.3 mph N/A   Mostly Cloudy
10:15 PM 35.6 °F 28.0 °F 30.2 °F 81% 29.68 in 10.0 mi NW 10.4 mph 17.3 mph N/A   Mostly Cloudy
10:35 PM 35.6 °F 28.0 °F 30.2 °F 81% 29.69 in 10.0 mi WNW 10.4 mph 16.1 mph N/A   Scattered Clouds
11:15 PM 35.6 °F 28.6 °F 28.4 °F 75% 29.70 in 10.0 mi WNW 9.2 mph 16.1 mph N/A   Partly Cloudy
11:35 PM 35.6 °F 28.0 °F 30.2 °F 81% 29.70 in 10.0 mi WNW 10.4 mph 19.6 mph N/A   Clear
11:55 PM 33.8 °F 26.4 °F 28.4 °F 81% 29.69 in 10.0 mi NW 9.2 mph 17.3 mph N/A   Partly Cloudy